GFSNIL_con_mucape_231.txt.gz
CAPE
810 646 610 575 551 343 340 421 514 597 644 666 796 712 608 838 826 869 772 911 687 658
730 841 753 681 668 512 314 267 460 463 522 601 697 632 680 708 877 921 1040 1093 818 750
635 907 1069 739 827 719 418 375 358 237 472 308 323 601 736 732 870 862 847 1036 725 941
306 1117 1244 1069 989 823 381 422 293 666 595 523 539 653 774 630 858 986 1053 936 829 247
617 1397 1512 1396 1239 951 549 351 377 463 683 772 762 884 725 672 970 858 810 891 776 519
1596 1582 1732 1652 1306 1009 873 324 396 645 777 757 797 809 540 615 796 924 1039 811 498 542
1890 1987 1823 1791 1725 1419 1188 1116 860 590 605 791 691 560 291 308 797 951 1095 773 609 752
1994 1993 1799 1634 1674 1421 1248 1203 1216 688 737 769 560 502 409 459 829 947 957 1010 1156 1037
2178 2149 2074 1789 1777 1509 1553 1336 1296 1058 955 868 767 565 490 733 911 884 800 904 1186 1255
1497 1803 2017 1877 1641 1606 1514 1327 1250 1077 1040 896 734 950 935 1036 968 1005 813 1028 1101 1373
1108 998 1275 1718 1775 1774 1628 1589 1509 1427 1106 984 966 1076 1012 1160 1231 1018 992 1182 1186 1227
886 867 875 436 692 1000 1434 1617 1637 1583 1371 1101 1048 1061 1100 1067 1182 1147 1182 1406 1272 1223
370 400 596 342 103 377 718 1229 1274 1297 857 989 778 755 530 466 901 1111 1175 1312 1480 1465
0 89 482 875 697 535 186 436 341 316 288 231 351 555 571 527 957 1364 1473 1530 1526 1497

GFSNIL_con_mucape_234.txt.gz
CAPE
593 475 467 460 432 392 361 280 375 625 568 514 521 535 548 656 668 615 675 697 671 685
589 571 593 490 401 394 399 344 244 351 482 487 592 649 655 566 671 731 921 697 882 615
215 322 352 483 653 641 401 406 206 213 340 430 427 472 591 604 656 710 705 784 858 758
109 106 478 506 477 694 523 563 483 279 254 218 328 438 529 636 800 795 697 765 855 506
74 73 151 442 605 596 830 667 499 316 466 472 484 618 622 727 994 880 884 1035 772 510
101 128 252 389 577 958 1007 818 641 408 509 601 693 678 615 714 836 972 950 720 744 816
157 457 805 1023 1023 1298 1215 944 805 513 533 656 672 748 678 716 783 849 1076 762 776 610
763 941 888 1018 1017 1178 1232 1055 1040 993 756 465 577 630 677 575 467 752 1062 831 784 639
1074 1303 1122 1092 1140 1152 1122 935 960 971 1121 946 598 658 673 498 342 783 1182 1171 982 994
934 851 764 785 927 764 650 774 777 642 672 741 592 684 681 500 306 538 959 855 1138 1187
553 585 624 383 297 205 270 314 471 328 358 466 352 375 560 529 554 694 907 849 980 1283
264 380 639 333 216 197 187 56 123 166 153 115 353 396 550 654 728 737 846 950 772 834
0 37 382 688 312 58 48 5 15 4 14 62 90 106 365 382 449 464 571 429 610 966
0 0 16 264 576 222 40 0 0 0 0 0 13 61 339 303 416 216 453 346 638 896

GFSNIL_con_mucape_237.txt.gz
CAPE
73 524 1009 1913 2312 1967 1216 1274 1402 1715 1995 1869 1835 1769 1775 1534 1907 2082 2263 1951 2059 2570
86 553 1095 1626 1708 1942 1390 1226 1369 1321 1467 1736 1825 1819 1925 2924 2157 2277 2287 2145 2252 2215
465 1287 1475 1381 1478 1459 1569 1477 1356 1251 1211 1531 1822 1828 1883 2212 1773 1915 2816 2735 1980 2637
729 703 848 853 1094 1156 1283 1446 1565 1415 1255 1408 1559 1572 1961 2207 1862 1910 2109 2013 2084 2194
513 661 527 557 462 678 1017 1282 1663 1593 1494 1287 1243 1350 1636 1591 1466 1867 1961 1980 1629 2040
616 574 464 740 784 1152 1527 1531 1645 1662 1425 1363 1427 1607 1691 1763 1824 1947 1982 1959 1753 1711
676 655 916 725 492 1239 2053 1679 1798 1792 1629 1426 1509 1684 1625 1743 1903 1840 1922 1909 1825 1792
1651 1647 1816 1674 1335 1666 1682 1996 1252 1699 1903 1637 1613 1648 1689 1762 1637 1874 1885 1851 1888 1616
2124 2036 1969 1992 1744 1322 1080 859 1197 1260 993 1278 2116 799 439 515 1756 1615 1687 1541 1596 1944
1469 1461 1436 1102 761 398 896 1271 1155 771 550 629 863 334 229 236 485 1221 1081 1515 2006 2195
1072 1351 1027 642 554 368 735 291 226 246 191 194 163 210 155 209 298 302 302 288 1960 2118
491 626 968 794 719 750 246 54 43 84 79 74 185 266 197 163 217 244 250 620 1687 1965
174 102 106 585 962 720 489 264 26 0 33 33 72 0 7 49 203 315 547 1160 1812 665
227 208 171 347 633 928 457 319 200 137 381 197 0 0 0 0 76 594 1221 1492 1466 1391

GFSNIL_con_mucape_240.txt.gz
CAPE
832 1632 1721 1125 2388 1173 1344 1552 1532 2014 1773 2183 2570 1759 1513 2897 1090 1404 1736 1986 1985 1235
148 106 363 978 2038 1220 1505 1379 1345 1705 2377 2031 1818 1644 2392 1919 1446 1441 1691 1443 1479 1580
162 254 355 1826 1919 1691 1604 1755 1760 1958 2168 2253 2158 2110 2224 1437 1601 1615 1448 1144 1519 1660
276 91 327 1026 1425 1466 1563 1986 2373 2536 2414 2228 2053 2080 2290 1864 1730 1568 1716 1610 1572 1575
241 343 480 947 1277 1102 1266 1838 2228 2586 2745 2443 2176 2269 2400 2070 1654 1720 1755 1841 1843 1806
774 869 1008 1165 1533 1399 2023 2511 2633 2747 2919 2548 2239 2030 2108 2120 2024 1615 1919 1974 1896 1923
1157 1118 936 1058 1098 1312 2229 3115 2972 2752 2779 2602 2155 2191 1768 1758 1923 1625 1794 2014 1989 1821
2513 2543 2630 3030 2903 2034 2694 2826 2382 2699 2486 1948 2403 1478 1643 1528 1527 1872 1719 1708 1765 1840
2755 2505 2616 3044 3186 2915 2722 2552 2371 1996 2376 2257 1707 1029 826 773 1417 1455 1543 1806 2383 2321
1025 903 1407 1888 2393 2863 2887 2478 2136 1811 1828 1754 1877 874 575 262 1105 1460 1844 2048 2227 1914
455 647 969 1039 1432 1621 1735 2326 2503 2267 2052 1678 1443 640 222 140 678 1342 1917 1945 2065 1973
154 200 315 492 896 1074 1301 1416 1289 1275 1331 1510 1279 200 55 3 266 588 1256 1616 1640 1407
405 283 183 200 378 707 904 798 701 651 557 280 219 72 0 34 68 310 688 1902 1359 436
558 586 594 642 696 693 624 757 710 634 611 585 385 328 0 0 0 0 0 822 829 1134

GFSNIL_con_mucape_246.txt.gz
CAPE
2915 1614 953 533 196 388 276 216 229 2699 2184 2186 2858 2509 2690 2475 2067 1507 1932 1937 2769 2196
883 548 303 164 195 450 816 897 1412 1382 1742 2360 3076 2980 2786 2273 2479 1985 2236 2118 1838 2083
329 24 41 133 136 207 619 1076 1392 1996 2200 2837 2735 2996 2740 2166 2388 2532 2446 1840 1378 1755
490 304 36 13 173 510 479 837 1860 2726 2850 3063 2427 2433 2813 2229 2211 2135 2157 1703 1458 1520
629 339 88 47 157 479 523 661 1805 2644 3076 2628 2075 2530 2770 1887 1831 1835 2070 1826 1276 1292
1338 568 430 659 1207 1464 1855 1889 3030 3016 2842 2573 1736 1371 1610 2293 1618 2027 2179 1937 1780 1127
2360 1979 1546 1662 1856 1846 2130 2302 2166 2876 2925 1939 1955 2031 1799 2004 2451 1770 1213 1418 1223 1418
3032 3025 2477 2211 2118 2237 2476 2535 2516 2547 2969 1750 972 637 1591 2008 1557 1652 1860 1071 1227 1618
2840 2854 2948 3169 3140 3066 3117 2813 2798 2653 2603 3031 2488 1678 1486 766 1476 1544 1641 1120 1076 703
2486 2494 2725 2683 2744 2650 2621 2992 2761 2588 2311 1969 1844 1268 1039 1152 952 1765 1733 1521 1911 1655
2022 1992 2045 2160 2135 1940 2126 2251 2323 2140 2128 2039 1967 911 907 718 937 1211 1584 1824 1698 1906
1801 1984 1903 1790 2001 2088 2037 1901 1668 1628 2177 2169 1998 651 411 210 592 481 1037 724 963 1302
2274 2111 1929 1699 1614 1578 1745 1323 1104 897 1130 1060 942 705 564 275 506 550 240 765 1260 699
1973 1980 1769 1593 1552 1531 1449 1498 1503 1368 1317 1296 1059 1059 616 318 491 581 183 19 61 316